SCP
0 0 0 0 0 0 0 0 0 1 2 3 4 5 6 6 7 9 11 12 11 11 11 11 10 9 7 8 8 8 9 10 10 8 7 7 7 8 8 9 8 9 10 11
0 0 0 0 0 0 0 0 0 1 4 6 7 8 7 8 9 9 10 10 10 12 14 14 11 9 8 8 8 8 8 9 9 8 8 7 7 7 8 9 10 11 12 12
0 0 0 1 1 0 0 1 2 5 9 11 11 10 9 9 11 12 11 10 10 13 16 14 10 8 8 8 9 9 9 10 10 9 8 8 7 8 9 11 12 13 13 13
0 0 0 1 1 0 1 2 5 9 12 12 10 9 7 8 11 13 13 11 11 12 12 9 7 6 7 8 9 11 12 12 11 10 9 9 9 10 11 13 13 13 13 13
1 0 1 1 1 1 2 3 6 9 9 8 7 6 5 5 8 12 13 12 11 10 8 6 4 5 7 8 9 10 12 13 13 12 11 11 12 13 13 13 13 11 11 11
1 0 1 1 1 1 2 4 5 5 5 5 6 5 4 5 8 10 11 11 11 10 9 6 6 7 8 9 9 8 10 12 14 13 13 14 16 16 15 14 12 11 11 12
1 1 1 1 1 1 3 5 5 4 4 6 7 6 6 7 9 9 8 9 10 11 11 10 9 9 10 10 10 9 10 12 13 13 14 16 19 19 18 15 13 13 13 13
1 2 2 2 2 2 3 4 5 5 6 8 8 7 6 7 7 6 5 6 8 10 12 11 10 11 11 11 11 12 11 11 11 11 12 15 19 21 20 16 13 13 12 12
2 3 3 3 3 3 3 4 5 7 8 8 8 7 6 6 5 5 4 5 7 10 11 11 11 12 12 11 10 11 11 11 11 11 11 12 17 21 21 16 13 12 11 10
3 3 3 3 3 4 4 5 6 8 9 8 8 7 6 5 4 4 5 7 10 10 10 11 11 12 12 11 10 10 11 12 13 12 11 11 14 17 17 14 12 12 13 12
3 3 2 2 3 5 6 6 7 8 9 8 7 6 5 4 4 4 5 8 10 9 9 11 12 11 10 10 11 13 14 15 15 13 11 11 11 11 11 9 9 10 13 14
2 3 3 3 4 6 6 7 7 7 7 6 5 4 3 4 6 6 5 6 7 8 9 11 11 10 8 9 11 14 17 19 17 14 11 9 9 8 7 6 5 6 8 10
2 3 3 4 4 4 4 5 5 5 5 4 3 3 3 6 8 7 5 5 5 7 9 11 10 9 8 8 8 10 14 16 16 14 11 9 8 7 6 5 4 3 3 4
2 3 3 3 3 3 3 3 3 3 3 3 3 3 6 9 9 7 5 5 5 7 8 8 8 8 8 7 7 7 8 9 10 11 11 10 10 8 7 7 6 4 3 2
2 2 2 2 3 5 5 5 5 5 5 6 6 7 9 10 9 7 5 5 6 6 7 7 7 8 8 8 7 7 6 5 6 7 8 9 10 9 9 9 9 7 5 3
2 1 1 2 3 5 7 7 8 8 9 11 12 12 12 11 9 8 7 7 7 7 7 7 8 8 8 8 8 7 6 5 4 4 5 6 7 8 10 11 11 10 8 6
1 1 1 1 2 3 4 5 6 7 8 10 11 11 10 9 9 9 8 8 7 6 6 6 7 7 7 6 6 7 7 5 4 4 4 5 5 6 9 10 10 10 9 7
1 1 1 1 1 1 1 2 2 2 4 5 5 5 6 6 7 8 8 8 7 6 5 5 5 5 4 4 5 6 7 6 5 4 5 5 4 5 6 7 8 8 8 7
2 2 2 2 1 1 1 1 1 1 2 2 3 3 4 4 5 6 7 8 7 7 6 5 4 3 4 4 5 7 9 8 7 5 5 5 5 5 5 6 6 6 6 7
2 3 2 2 1 1 1 1 1 1 2 3 3 3 4 4 5 5 5 5 5 5 4 3 2 3 4 4 5 7 10 11 9 7 6 6 5 5 5 6 6 6 5 5
2 2 2 2 1 1 1 1 1 2 2 3 4 4 4 4 4 4 3 3 2 2 2 2 2 2 3 3 3 5 8 10 10 8 7 7 5 5 5 6 6 5 4 4
1 1 1 1 2 2 2 2 3 3 4 5 6 5 4 3 3 2 2 2 1 1 1 1 1 1 1 1 1 2 4 6 7 6 5 5 4 3 4 6 6 6 5 5
1 1 1 2 2 3 4 4 5 5 6 6 5 4 3 2 2 1 2 2 1 1 1 1 1 1 0 1 1 1 2 3 4 4 4 3 3 3 4 5 6 6 6 6
1 1 2 2 3 3 3 4 4 5 5 4 3 2 2 1 2 2 2 1 1 1 1 1 0 0 0 0 1 1 2 2 3 3 3 3 3 2 3 3 4 5 5 6
2 2 2 2 2 2 2 2 2 2 2 1 1 1 1 2 2 1 1 1 1 0 0 0 0 0 0 0 1 1 2 3 3 3 3 3 2 2 2 2 3 3 4 5
1 2 2 2 1 1 1 1 1 1 1 1 1 1 1 1 1 1 1 1 1 0 0 0 0 0 0 1 1 1 2 2 3 4 3 3 2 2 2 2 2 3 4 5
1 1 1 1 1 1 1 1 1 1 1 1 1 1 1 1 1 1 1 1 1 0 0 0 0 0 0 1 1 1 2 2 3 4 4 3 2 2 2 2 2 2 4 5
Wind_Speed
9 10 11 11 10 9 8 6 5 4 3 3 1 3 4 4 5 5 5 5 5 4 4 5 5 5 4 4 3 3 4 4 4 5 5 4 4 4 4 3 4 3 3 3
11 12 12 12 12 10 9 7 6 6 4 2 0 4 3 4 4 4 4 5 5 4 4 4 4 4 4 4 4 3 3 4 4 4 4 4 4 4 3 3 3 3 4 3
9 10 11 11 10 10 9 7 6 5 2 1 3 2 2 3 3 4 4 4 3 3 2 3 3 3 4 4 4 4 3 3 3 4 4 4 4 3 4 4 4 3 3 3
8 8 12 7 7 8 7 4 2 1 1 1 1 2 5 5 5 5 4 4 3 2 1 2 2 3 3 4 3 3 3 2 2 3 3 3 3 3 3 2 3 3 3 3
7 9 11 7 5 6 5 2 3 3 3 3 4 4 5 7 7 5 5 5 3 3 2 1 2 2 2 2 3 3 3 2 2 2 3 3 3 3 2 2 2 3 3 3
8 10 10 3 4 7 5 1 5 5 5 6 5 2 4 8 9 7 5 3 4 4 3 1 1 1 2 2 2 2 2 2 2 2 2 3 3 2 2 2 3 3 3 3
10 11 6 2 3 5 4 3 6 8 8 7 6 5 4 6 7 7 5 4 4 4 3 2 2 1 1 1 2 1 1 1 2 2 3 3 2 2 2 2 3 4 4 4
9 10 5 6 4 4 4 4 5 5 5 5 4 5 5 5 4 4 5 5 4 3 3 2 1 1 1 0 0 0 1 1 2 2 3 3 3 3 3 3 4 4 4 4
2 1 4 4 4 5 5 5 5 5 4 4 4 4 5 5 5 6 7 6 5 4 3 2 2 1 1 1 0 0 1 2 2 3 3 2 3 4 4 3 4 3 3 3
1 1 3 3 4 5 6 6 5 4 4 4 4 4 4 4 5 6 5 5 4 4 4 3 3 2 2 1 0 1 2 2 3 3 4 3 3 4 4 3 3 2 2 2
3 1 1 2 4 4 4 5 6 5 4 3 3 3 4 4 4 4 5 4 4 4 4 3 2 2 2 2 2 2 3 3 3 3 3 3 3 2 3 2 3 3 3 2
3 1 2 2 4 5 5 5 5 5 5 3 3 2 2 2 3 2 3 3 4 4 4 4 2 1 2 1 2 2 3 3 3 3 2 3 2 2 0 1 2 4 3 2
4 6 4 4 4 5 5 5 5 5 4 3 2 1 2 1 2 2 3 3 4 4 4 3 3 2 1 1 1 2 3 3 3 3 3 3 3 3 2 1 1 2 3 3
4 4 4 4 4 5 5 5 5 4 4 3 2 1 1 1 1 2 4 4 4 4 5 4 4 3 3 2 1 2 4 3 3 3 3 4 3 4 4 3 3 2 3 3
2 3 3 3 3 4 4 5 5 4 4 4 2 1 1 1 1 2 3 4 4 4 4 5 5 4 4 3 2 3 3 2 2 3 3 3 3 3 3 3 2 1 2 2
2 2 3 3 3 3 4 5 5 4 4 4 3 3 2 1 2 2 2 3 4 5 4 5 5 5 5 4 4 3 2 3 4 3 3 3 3 3 3 2 1 1 1 0
2 3 3 4 4 4 4 5 5 5 3 3 4 4 3 3 3 3 3 3 3 3 3 3 4 5 5 4 4 4 4 3 4 4 3 2 3 3 2 2 2 1 0 1
3 3 3 3 3 4 4 4 4 4 3 4 3 3 3 3 4 4 4 5 4 3 3 3 3 4 4 4 4 4 4 4 3 3 3 2 3 3 2 2 2 2 1 1
3 3 3 3 3 3 4 4 4 4 4 3 3 3 3 3 3 3 4 4 4 4 5 4 4 4 4 4 5 3 4 4 3 3 3 2 3 2 2 2 2 2 2 1
2 2 2 2 2 2 3 3 3 3 3 3 3 3 3 3 3 3 4 3 3 4 5 5 4 3 4 4 4 4 4 4 4 3 3 3 2 2 2 3 3 2 2 2
1 1 2 2 3 3 3 3 2 2 2 2 2 2 2 2 3 3 3 3 3 4 5 5 4 4 4 4 5 4 4 4 4 4 3 3 3 3 2 2 3 2 2 2
1 2 2 2 2 2 3 3 2 2 2 2 2 3 3 3 3 2 2 2 3 4 4 4 4 5 6 6 4 4 4 4 4 3 3 2 2 2 2 3 3 2 2 2
2 3 2 2 2 2 3 2 2 2 2 2 2 3 3 3 3 3 3 2 2 3 3 4 5 6 7 5 4 4 5 5 4 3 2 2 2 2 2 2 2 2 2 3
2 2 2 2 2 2 2 2 2 1 1 2 2 2 3 3 2 1 1 1 2 2 3 3 4 5 5 4 4 4 4 4 4 4 3 2 2 1 1 2 1 1 2 3
2 2 2 3 3 2 2 2 2 2 2 1 1 1 2 1 2 2 2 2 1 2 3 3 4 4 4 4 4 4 4 4 4 4 3 3 3 2 2 1 1 2 2 2
2 2 1 2 3 3 2 2 2 2 1 1 2 2 1 1 1 2 2 2 3 2 3 3 2 3 3 4 4 4 4 4 4 3 3 3 4 3 3 3 3 3 3 3
2 2 1 2 3 2 1 1 1 2 2 2 2 2 2 2 2 3 3 3 3 3 3 3 3 3 4 4 4 5 4 4 4 4 3 3 3 3 3 3 2 3 3 3
Wind_Direction
272 273 276 272 267 265 263 265 268 267 274 274 307 48 51 53 74 95 105 105 104 117 121 137 143 149 160 165 165 171 176 181 187 192 198 205 205 207 207 211 215 207 219 231
268 263 269 274 276 271 263 261 248 241 240 228 35 55 46 52 58 70 77 83 93 103 115 130 148 162 167 167 166 171 186 187 186 193 196 207 210 207 205 210 219 215 216 222
273 277 277 262 266 269 265 263 257 252 260 111 86 56 38 51 55 52 55 63 75 104 119 138 151 163 172 171 174 178 187 188 187 191 194 206 218 207 215 219 215 220 216 215
264 273 264 258 258 265 271 279 346 78 55 41 92 51 47 49 49 40 38 53 48 63 108 134 132 141 160 165 162 166 175 186 188 193 199 193 205 217 211 212 213 221 226 220
264 258 260 255 280 288 285 342 26 41 30 13 44 73 52 35 32 47 43 42 23 27 22 72 129 151 149 160 168 172 176 181 190 189 196 195 202 213 210 215 223 227 228 225
257 264 264 260 329 323 296 184 32 30 26 16 17 36 44 32 24 30 38 32 23 32 21 13 76 137 163 173 169 180 181 183 186 202 212 203 209 209 215 217 226 233 233 227
248 259 271 330 315 301 284 37 26 33 24 20 31 26 26 31 26 14 7 13 27 29 21 10 30 43 178 180 185 185 183 189 193 205 216 202 195 199 208 225 235 237 236 227
239 251 263 358 347 18 40 37 36 38 25 23 29 27 34 33 29 17 5 7 13 17 19 22 35 16 283 173 237 127 180 203 213 224 239 205 193 206 212 225 236 237 240 242
308 334 55 35 37 40 30 24 24 21 9 17 31 31 30 23 10 10 12 8 8 7 9 27 27 10 344 10 7 226 222 225 228 234 241 228 209 215 216 219 233 236 237 248
276 48 32 28 44 34 20 13 9 9 20 23 26 17 23 25 14 359 359 3 360 3 2 11 21 9 358 359 300 226 238 236 230 227 228 230 223 224 220 219 226 238 242 245
244 196 271 12 27 20 18 7 2 1 1 17 21 23 22 23 15 347 338 352 355 1 356 358 13 357 341 342 313 265 252 245 242 236 232 229 227 247 240 222 210 217 234 239
304 344 330 8 13 2 1 355 345 339 337 355 10 4 9 16 15 348 341 350 353 353 345 349 2 5 339 317 316 292 265 250 253 252 237 231 223 225 234 243 209 217 228 240
2 6 25 18 359 352 342 329 321 321 323 334 334 335 354 20 0 348 344 343 350 346 339 345 351 347 320 300 271 278 283 277 270 265 255 242 235 234 226 217 248 247 235 228
30 14 355 347 342 340 335 326 321 325 329 327 327 352 4 13 3 347 332 330 336 339 339 339 340 341 335 330 297 276 280 277 271 265 260 248 243 243 241 228 220 226 229 226
2 332 323 328 329 334 333 317 307 308 312 313 324 335 329 310 330 314 311 314 321 326 330 333 336 336 336 323 303 285 285 284 287 288 282 277 269 261 259 259 239 223 202 187
322 320 310 293 299 310 316 319 318 325 335 342 346 337 326 322 312 297 301 314 313 315 329 335 334 332 329 325 321 302 282 283 283 282 279 282 286 285 286 280 264 245 255 184
274 263 273 290 302 313 317 320 321 321 329 336 333 330 333 329 322 322 320 313 306 309 313 317 320 322 326 329 321 306 300 283 272 274 280 286 293 290 295 298 287 270 249 125
274 285 287 290 295 303 304 311 318 320 329 336 328 324 331 329 321 324 322 317 317 323 328 321 317 313 321 327 315 306 307 306 296 294 298 299 291 290 289 280 283 284 272 202
293 301 300 305 311 314 316 322 327 323 329 330 336 341 337 331 332 333 330 327 332 332 331 327 320 310 318 333 321 305 301 304 306 305 301 294 285 292 292 292 297 305 293 290
301 301 303 317 324 319 316 315 318 313 324 339 343 340 340 340 338 342 342 335 329 322 325 328 320 320 315 320 310 295 292 298 295 291 290 292 286 286 302 301 293 289 304 308
307 332 14 3 351 343 331 331 333 333 330 331 336 341 341 341 337 335 328 318 337 344 331 327 320 318 318 317 295 288 290 290 290 296 299 301 304 310 309 297 296 302 308 313
342 353 357 348 344 342 335 330 331 326 322 329 337 332 325 327 328 329 327 322 344 356 332 325 329 340 334 313 297 297 297 299 303 307 311 320 328 333 330 323 321 324 325 329
350 343 336 336 325 326 331 334 343 342 337 343 334 325 319 318 314 313 320 342 347 341 320 330 342 341 326 311 310 308 307 308 304 298 303 315 321 320 312 314 321 321 324 324
318 314 317 304 291 293 306 318 331 338 319 294 287 295 292 291 296 320 344 10 350 337 331 342 328 318 309 307 309 310 311 312 310 311 315 318 313 312 313 315 323 323 322 327
284 288 288 289 280 274 273 274 269 259 268 294 302 289 285 315 338 345 336 340 356 324 325 328 300 292 294 313 319 321 321 319 314 316 321 317 311 315 324 328 339 341 338 345
257 268 289 299 302 294 294 306 308 313 314 322 326 330 340 355 347 338 337 342 349 327 316 319 314 302 313 324 325 321 316 313 309 306 320 326 328 334 350 356 4 8 13 15
254 245 243 261 276 286 297 314 324 332 337 339 339 347 350 353 358 356 346 337 340 327 316 317 327 331 333 340 340 342 341 338 338 341 342 339 342 343 349 7 21 20 9 6